• In Germany
  • List of Countries
  • For 7 days
  • Water Temperature
  • Satellite Maps
  • Weather Map
  • Weather Widgets
  • user-avatar
    Login

    Hourly Weather Smolan

    Today, 26 September, Tuesday

    Time Temperature Precipitation Wind Pressure Humidity
    00:00 +10°C° 2 mm 3 mps 657 mmHg 87%
    01:00 +9°C° 2 mm 3 mps 657 mmHg 88%
    02:00 +9°C° 2 mm 3 mps 657 mmHg 90%
    03:00 +9°C° 2.3 mm 3 mps 656 mmHg 90%
    04:00 +9°C° 2.3 mm 3 mps 656 mmHg 90%
    05:00 +9°C° 2.3 mm 3 mps 656 mmHg 90%
    06:00 +9°C° 2.1 mm 3 mps 656 mmHg 90%
    07:00 +9°C° 2.1 mm 3 mps 656 mmHg 89%
    08:00 +9°C° 2.1 mm 3 mps 656 mmHg 89%
    09:00 +9°C° 2.5 mm 3 mps 656 mmHg 89%
    10:00 +9°C° 2.5 mm 2 mps 656 mmHg 88%
    11:00 +9°C° 2.5 mm 2 mps 657 mmHg 88%
    12:00 +9°C° 2.3 mm 2 mps 657 mmHg 87%
    13:00 +10°C° 2.3 mm 2 mps 657 mmHg 87%
    14:00 +10°C° 2.3 mm 2 mps 657 mmHg 86%
    15:00 +10°C° 2 mm 2 mps 657 mmHg 87%
    16:00 +10°C° 2 mm 2 mps 657 mmHg 87%
    17:00 +10°C° 2 mm 2 mps 657 mmHg 87%
    18:00 +10°C° 1.5 mm 2 mps 657 mmHg 89%
    19:00 +9°C° 1.5 mm 2 mps 657 mmHg 90%
    20:00 +9°C° 1.5 mm 2 mps 657 mmHg 91%
    21:00 +9°C° 1.1 mm 2 mps 657 mmHg 92%
    22:00 +9°C° 1.1 mm 2 mps 657 mmHg 92%
    23:00 +9°C° 1.1 mm 2 mps 658 mmHg 92%

    Tomorrow, 27 September, Wednesday

    Time Temperature Precipitation Wind Pressure Humidity
    00:00 +9°C° 0.7 mm 2 mps 658 mmHg 92%
    01:00 +9°C° 0.7 mm 2 mps 658 mmHg 93%
    02:00 +9°C° 0.7 mm 2 mps 658 mmHg 93%
    03:00 +9°C° 0.4 mm 2 mps 658 mmHg 93%
    04:00 +9°C° 0.4 mm 2 mps 658 mmHg 93%
    05:00 +9°C° 0.4 mm 2 mps 658 mmHg 93%
    06:00 +9°C° 0.1 mm 2 mps 658 mmHg 92%
    07:00 +9°C° 0.1 mm 2 mps 659 mmHg 91%
    08:00 +9°C° 0.1 mm 2 mps 659 mmHg 89%
    09:00 +10°C° 0.1 mm 2 mps 660 mmHg 88%
    10:00 +10°C° 0.1 mm 2 mps 660 mmHg 86%
    11:00 +12°C° 0.1 mm 2 mps 661 mmHg 84%
    12:00 +12°C° 0.1 mm 2 mps 661 mmHg 82%
    13:00 +11°C° 0.1 mm 3 mps 661 mmHg 81%
    14:00 +11°C° 0.1 mm 3 mps 661 mmHg 79%
    15:00 +11°C° 0.1 mm 3 mps 660 mmHg 80%
    16:00 +10°C° 0.1 mm 3 mps 660 mmHg 82%
    17:00 +10°C° 0.1 mm 3 mps 660 mmHg 83%
    18:00 +9°C° 0.1 mm 3 mps 660 mmHg 85%
    19:00 +9°C° 0.1 mm 3 mps 661 mmHg 87%
    20:00 +8°C° 0.1 mm 3 mps 661 mmHg 89%
    21:00 +8°C° 0 mm 3 mps 661 mmHg 89%
    22:00 +8°C° 0 mm 3 mps 661 mmHg 90%
    23:00 +7°C° 0 mm 3 mps 661 mmHg 90%

    Day after tomorrow, 28 September, Thursday

    Time Temperature Precipitation Wind Pressure Humidity
    00:00 +7°C° 0 mm 2 mps 661 mmHg 90%
    01:00 +7°C° 0 mm 2 mps 661 mmHg 90%
    02:00 +7°C° 0 mm 2 mps 661 mmHg 90%
    03:00 +6°C° 0 mm 2 mps 661 mmHg 90%
    04:00 +6°C° 0 mm 2 mps 661 mmHg 90%
    05:00 +6°C° 0 mm 2 mps 661 mmHg 91%
    06:00 +6°C° 0 mm 2 mps 661 mmHg 87%
    07:00 +7°C° 0 mm 3 mps 661 mmHg 84%
    08:00 +7°C° 0 mm 3 mps 662 mmHg 80%
    09:00 +8°C° 0 mm 3 mps 662 mmHg 76%
    10:00 +9°C° 0 mm 3 mps 662 mmHg 71%
    11:00 +10°C° 0 mm 4 mps 662 mmHg 66%
    12:00 +10°C° 0 mm 4 mps 662 mmHg 63%
    13:00 +11°C° 0 mm 4 mps 662 mmHg 61%
    14:00 +11°C° 0 mm 4 mps 662 mmHg 58%
    15:00 +11°C° 0 mm 4 mps 662 mmHg 60%
    16:00 +10°C° 0 mm 4 mps 662 mmHg 63%
    17:00 +8°C° 0 mm 4 mps 661 mmHg 65%
    18:00 +7°C° 0 mm 4 mps 661 mmHg 70%
    19:00 +6°C° 0 mm 4 mps 661 mmHg 75%
    20:00 +5°C° 0 mm 3 mps 661 mmHg 80%
    21:00 +5°C° 0 mm 3 mps 661 mmHg 81%
    22:00 +5°C° 0 mm 3 mps 661 mmHg 82%
    23:00 +4°C° 0 mm 3 mps 661 mmHg 84%

    29 September, Friday

    Time Temperature Precipitation Wind Pressure Humidity
    00:00 +4°C° 0 mm 3 mps 661 mmHg 84%
    01:00 +4°C° 0 mm 3 mps 660 mmHg 84%
    02:00 +3°C° 0 mm 3 mps 660 mmHg 85%
    03:00 +3°C° 0 mm 3 mps 660 mmHg 85%
    04:00 +3°C° 0 mm 3 mps 660 mmHg 84%
    05:00 +3°C° 0 mm 3 mps 660 mmHg 84%
    06:00 +4°C° 0 mm 3 mps 660 mmHg 81%
    07:00 +4°C° 0 mm 3 mps 660 mmHg 77%
    08:00 +5°C° 0 mm 4 mps 660 mmHg 74%
    09:00 +6°C° 0 mm 4 mps 661 mmHg 69%
    10:00 +7°C° 0 mm 4 mps 661 mmHg 64%
    11:00 +8°C° 0 mm 4 mps 661 mmHg 59%
    12:00 +8°C° 0 mm 4 mps 661 mmHg 57%
    13:00 +8°C° 0 mm 4 mps 661 mmHg 56%
    14:00 +10°C° 0 mm 4 mps 660 mmHg 54%
    15:00 +8°C° 0 mm 4 mps 660 mmHg 56%
    16:00 +8°C° 0 mm 4 mps 660 mmHg 58%
    17:00 +7°C° 0 mm 4 mps 660 mmHg 60%
    18:00 +6°C° 0 mm 4 mps 659 mmHg 65%
    19:00 +5°C° 0 mm 3 mps 659 mmHg 71%
    20:00 +4°C° 0 mm 3 mps 659 mmHg 76%
    21:00 +3°C° 0 mm 3 mps 659 mmHg 77%
    22:00 +3°C° 0 mm 3 mps 659 mmHg 78%
    23:00 +3°C° 0 mm 3 mps 659 mmHg 79%

    30 September, Saturday

    Time Temperature Precipitation Wind Pressure Humidity
    00:00 +2°C° 0 mm 3 mps 658 mmHg 80%
    01:00 +2°C° 0 mm 3 mps 658 mmHg 81%
    02:00 +1°C° 0 mm 3 mps 658 mmHg 83%
    03:00 +1°C° 0 mm 3 mps 658 mmHg 84%
    04:00 +1°C° 0 mm 3 mps 657 mmHg 84%
    05:00 0°C° 0 mm 3 mps 657 mmHg 85%
    06:00 +1°C° 0 mm 3 mps 658 mmHg 78%
    07:00 +2°C° 0 mm 3 mps 658 mmHg 72%
    08:00 +4°C° 0 mm 3 mps 658 mmHg 65%
    09:00 +5°C° 0 mm 3 mps 659 mmHg 57%
    10:00 +8°C° 0 mm 3 mps 659 mmHg 48%
    11:00 +10°C° 0 mm 2 mps 659 mmHg 40%
    12:00 +12°C° 0 mm 2 mps 659 mmHg 38%
    13:00 +11°C° 0 mm 3 mps 659 mmHg 37%
    14:00 +12°C° 0 mm 3 mps 659 mmHg 35%
    15:00 +12°C° 0 mm 2 mps 658 mmHg 38%
    16:00 +10°C° 0 mm 2 mps 658 mmHg 40%
    17:00 +10°C° 0 mm 2 mps 658 mmHg 43%
    18:00 +8°C° 0 mm 2 mps 657 mmHg 48%
    19:00 +6°C° 0 mm 2 mps 657 mmHg 53%
    20:00 +4°C° 0 mm 2 mps 657 mmHg 58%
    21:00 +4°C° 0 mm 2 mps 657 mmHg 59%
    22:00 +3°C° 0 mm 2 mps 657 mmHg 59%
    23:00 +3°C° 0 mm 2 mps 657 mmHg 60%

    1 October, Sunday

    Time Temperature Precipitation Wind Pressure Humidity
    00:00 +3°C° 0 mm 2 mps 657 mmHg 60%
    01:00 +3°C° 0 mm 2 mps 657 mmHg 60%
    02:00 +2°C° 0 mm 2 mps 656 mmHg 60%
    03:00 +2°C° 0 mm 2 mps 656 mmHg 61%
    04:00 +2°C° 0 mm 2 mps 656 mmHg 61%
    05:00 +2°C° 0 mm 2 mps 656 mmHg 62%
    06:00 +3°C° 0 mm 2 mps 657 mmHg 59%
    07:00 +5°C° 0 mm 1 mps 657 mmHg 56%
    08:00 +6°C° 0 mm 1 mps 658 mmHg 52%
    09:00 +8°C° 0 mm 1 mps 658 mmHg 48%
    10:00 +9°C° 0 mm 2 mps 658 mmHg 43%
    11:00 +12°C° 0 mm 2 mps 659 mmHg 39%
    12:00 +12°C° 0 mm 2 mps 659 mmHg 39%
    13:00 +12°C° 0 mm 2 mps 658 mmHg 39%
    14:00 +12°C° 0 mm 2 mps 658 mmHg 39%
    15:00 +12°C° 0 mm 2 mps 658 mmHg 43%
    16:00 +11°C° 0 mm 1 mps 657 mmHg 46%
    17:00 +10°C° 0 mm 1 mps 657 mmHg 50%
    18:00 +9°C° 0 mm 1 mps 657 mmHg 53%
    19:00 +8°C° 0 mm 1 mps 657 mmHg 55%
    20:00 +7°C° 0 mm 1 mps 657 mmHg 58%
    21:00 +6°C° 0 mm 1 mps 657 mmHg 59%
    22:00 +6°C° 0 mm 1 mps 657 mmHg 60%
    23:00 +5°C° 0 mm 1 mps 657 mmHg 61%
    Show more